Location: Hopewell Observatory
(38.8698°N, 77.6988°W)
Time: 03:52:42
(UTC-05:00)

Amateur Radio Satellites - All Passes

Search period start: 03 March 2015 03:22
Search period end: 04 March 2015 03:22
Location: Hopewell Observatory, 38.8698°N, 77.6988°W

Satellite Date Start Highest point End Downlink Frequencies (MHz)
Time Altitude Azimuth
ITAMSAT 1 03 Mar 03:27:26 03:32:08 34° 291° (WNW) 03:36:45 435.822/435.867
AO-7 03 Mar 03:27:54 03:35:00 32° 96° (E) 03:42:16 29.400- 29.500
MOZHAYETS 4 03 Mar 03:30:44 03:34:42 31° 70° (ENE) 03:38:44
Oscar 19 03 Mar 03:31:09 03:32:46 11° 298° (WNW) 03:34:05 437.125/150
PCSat 03 Mar 04:00:40 04:01:47 11° 38° (NE) 04:03:10 145.827
AIST 2 03 Mar 04:09:56 04:12:59 19° 249° (WSW) 04:15:52 435.215
HORYU 2 03 Mar 04:12:56 04:17:14 48° 287° (WNW) 04:21:31 437.375
JUGNU 03 Mar 04:28:08 04:29:43 11° 184° (S) 04:31:17 437.505
RS-15 03 Mar 04:29:23 04:36:07 17° 6° (N) 04:43:07 29.354- 29.394
SRMSAT 03 Mar 04:30:31 04:32:08 11° 176° (S) 04:33:47 437.500
M-CUBED/EXP-1 PRIME 03 Mar 04:34:20 04:36:28 16° 262° (W) 04:38:33 437.505
AUBIESAT-1 03 Mar 04:35:48 04:38:06 17° 262° (W) 04:40:22 437.475
JAS-2 03 Mar 05:02:55 05:10:24 75° 286° (WNW) 05:18:14 435.910
MOZHAYETS 4 03 Mar 05:08:15 05:11:58 24° 266° (W) 05:15:36
YUBILEINY 03 Mar 05:09:54 05:16:42 24° 277° (W) 05:23:07 435.215
Cubesat XI-IV 03 Mar 05:18:40 05:21:35 15° 89° (E) 05:24:47 437.490
AO-7 03 Mar 05:20:08 05:28:10 54° 294° (WNW) 05:36:07 29.400- 29.500
CUTE-I 03 Mar 05:27:03 05:30:35 18° 91° (E) 05:34:19 437.470
CUBESAT XI-V 03 Mar 05:30:10 05:34:34 43° 73° (ENE) 05:39:03 437.345
PCSat 03 Mar 05:41:04 05:46:27 61° 59° (ENE) 05:51:49 145.827
STRAND 1 03 Mar 05:44:53 05:49:39 41° 71° (ENE) 05:54:29 437.568
AIST 1 03 Mar 05:58:31 05:59:57 12° 86° (E) 06:01:37
PRISM 03 Mar 06:04:43 06:08:50 70° 258° (WSW) 06:13:00 437.425
SRMSAT 03 Mar 06:19:03 06:20:26 11° 186° (S) 06:21:46 437.500
RS-15 03 Mar 06:43:17 06:53:20 36° 39° (NE) 07:03:59 29.354- 29.394
JAS-2 03 Mar 06:50:22 06:54:32 15° 301° (WNW) 06:58:22 435.910
Cubesat XI-IV 03 Mar 06:56:54 07:02:14 63° 287° (WNW) 07:07:30 437.490
CUTE-I 03 Mar 07:05:50 07:11:04 53° 288° (WNW) 07:16:13 437.470
CUBESAT XI-V 03 Mar 07:09:02 07:12:17 18° 269° (W) 07:15:22 437.345
AO-7 03 Mar 07:16:49 07:19:19 11° 313° (NW) 07:21:18 29.400- 29.500
STRAND 1 03 Mar 07:25:00 07:29:03 22° 267° (W) 07:32:59 437.568
GONETS M04 03 Mar 07:25:35 07:31:10 19° 62° (ENE) 07:37:14
PCSat 03 Mar 07:25:56 07:29:25 17° 254° (WSW) 07:32:40 145.827
BRITE-PL 03 Mar 07:28:53 07:29:25 10° 86° (E) 07:30:15 437.365/2234.400
AIST 1 03 Mar 07:32:55 07:37:10 52° 280° (W) 07:41:29
ISS 03 Mar 07:34:19 07:36:05 14° 130° (SE) 07:37:56 145.825
DOVE 4 03 Mar 08:03:35 08:04:13 10° 88° (E) 08:05:09 437.250
HO-68 03 Mar 08:05:09 08:11:02 28° 94° (E) 08:17:06 435.675
AAUSAT CUBESAT 2 03 Mar 08:17:59 08:20:03 14° 90° (E) 08:22:18 437.432
COMPASS 1 03 Mar 08:20:26 08:23:10 17° 92° (E) 08:26:01 437.405
SEEDS 03 Mar 08:47:35 08:51:38 43° 98° (E) 08:55:41 437.485
CANX-2 03 Mar 08:51:33 08:55:48 65° 101° (ESE) 09:00:01 2200.000
TIGRISAT 03 Mar 08:54:02 08:56:22 15° 67° (ENE) 08:58:51 435.000
RS-15 03 Mar 08:55:30 09:06:59 77° 242° (WSW) 09:18:56 29.354- 29.394
BRITE-PL 03 Mar 09:04:09 09:08:38 60° 285° (WNW) 09:12:49 437.365/2234.400
GOMX 1 03 Mar 09:06:06 09:10:29 88° 291° (WNW) 09:14:39 467.674
ANTELSAT 03 Mar 09:06:58 09:10:11 21° 69° (ENE) 09:13:28 437.575/2403.000
ISS 03 Mar 09:09:04 09:12:13 53° 324° (NW) 09:15:24 145.825
UKube-1 03 Mar 09:10:01 09:10:06 10° 89° (E) 09:10:28 .
CUTE 1.7 + AOD 2 03 Mar 09:10:03 09:14:19 84° 285° (WNW) 09:18:35 437.475
O/OREOS (USA 219) 03 Mar 09:12:36 09:17:09 80° 110° (ESE) 09:21:45 437.305
GONETS M04 03 Mar 09:20:34 09:29:22 86° 264° (W) 09:38:10
UWE-3 03 Mar 09:20:53 09:23:53 20° 93° (E) 09:27:01 435.000/436.395/437.385
DELFI C3 03 Mar 09:21:23 09:24:50 26° 95° (E) 09:28:21 145.870
POLYITAN 1 03 Mar 09:21:34 09:24:13 17° 67° (ENE) 09:27:00 437.675
POPSAT HIP 1 03 Mar 09:21:50 09:24:26 16° 67° (ENE) 09:27:12 437.405
SO-50 03 Mar 09:28:50 09:32:52 25° 46° (NE) 09:36:57 436.795
DOVE 4 03 Mar 09:38:22 09:42:33 55° 286° (WNW) 09:46:35 437.250
CINEMA 3 03 Mar 09:42:01 09:46:12 82° 102° (ESE) 09:50:21 145.822/145.860
NANOSAT C BR1 03 Mar 09:43:39 09:47:17 28° 71° (ENE) 09:50:58 145.865
Oscar 11 03 Mar 09:48:20 09:52:40 73° 101° (ESE) 09:57:00 145.826/435.025
AAUSAT CUBESAT 2 03 Mar 09:51:59 09:56:00 44° 286° (WNW) 09:59:59 437.432
HO-68 03 Mar 09:52:09 09:59:07 53° 291° (WNW) 10:06:01 435.675
COMPASS 1 03 Mar 09:55:09 09:59:02 36° 288° (WNW) 10:02:52 437.405
CUBEBUG 2 03 Mar 09:58:46 10:02:54 69° 101° (E) 10:07:03 437.445
UNISAT 6 03 Mar 10:03:31 10:07:57 89° 77° (ENE) 10:12:19 437.425
DX 1 03 Mar 10:13:39 10:17:59 62° 101° (E) 10:22:18 434.975-435.025
QB50P1 03 Mar 10:15:57 10:20:12 67° 76° (ENE) 10:24:28 145.935-145.965
QB50P2 03 Mar 10:19:59 10:24:15 76° 77° (ENE) 10:28:34 145.880/145.840
AISAT 03 Mar 10:20:02 10:23:53 29° 96° (E) 10:27:44 437.250
CUBEBUG 1 03 Mar 10:23:04 10:24:52 13° 89° (E) 10:26:54 437.445
BUGSAT 1 03 Mar 10:23:09 10:27:21 59° 75° (ENE) 10:31:34 437.445
SEEDS 03 Mar 10:24:35 10:27:08 15° 293° (WNW) 10:29:33 437.485
50 SAT 03 Mar 10:25:17 10:28:47 30° 96° (E) 10:32:19 437.505
TIGRISAT 03 Mar 10:28:31 10:32:48 48° 261° (W) 10:37:01 435.000
VELOX 1 03 Mar 10:29:06 10:33:10 35° 97° (E) 10:37:14 145.980
CANX-2 03 Mar 10:30:06 10:31:15 11° 295° (WNW) 10:32:10 2200.000
HUMSAT D 03 Mar 10:34:16 10:38:20 60° 100° (E) 10:42:25 437.325/437.525
FUNcube-1 03 Mar 10:34:23 10:38:31 68° 284° (WNW) 10:42:39 145.935
DUCHIFAT 1 03 Mar 10:34:32 10:38:49 76° 258° (WSW) 10:43:06 145.980
ZACube-1 03 Mar 10:35:52 10:40:00 64° 285° (WNW) 10:44:07 437.345
UKube-1 03 Mar 10:42:28 10:46:47 65° 285° (WNW) 10:51:04 .
ANTELSAT 03 Mar 10:42:50 10:46:50 33° 263° (W) 10:50:45 437.575/2403.000
DANDE 03 Mar 10:46:46 10:49:01 24° 76° (ENE) 10:51:16 436.750
ESTCUBE 1 03 Mar 10:47:07 10:50:58 27° 95° (E) 10:54:52 437.505/2401.250
ISS 03 Mar 10:47:40 10:49:15 13° 343° (NNW) 10:50:48 145.825
O/OREOS (USA 219) 03 Mar 10:55:45 10:57:17 11° 309° (NW) 10:58:35 437.305
POLYITAN 1 03 Mar 10:55:48 10:59:52 41° 262° (W) 11:03:56 437.675
POPSAT HIP 1 03 Mar 10:55:58 11:00:03 42° 262° (W) 11:04:08 437.405
DELFI C3 03 Mar 10:56:43 10:59:57 22° 290° (WNW) 11:03:05 145.870
UWE-3 03 Mar 10:56:53 11:00:31 30° 289° (WNW) 11:04:08 435.000/436.395/437.385
SO-50 03 Mar 11:08:56 11:13:39 44° 244° (WSW) 11:18:17 436.795
RS-15 03 Mar 11:11:13 11:17:59 16° 259° (W) 11:23:53 29.354- 29.394
CUSAT 1 03 Mar 11:12:25 11:15:00 64° 262° (W) 11:17:41 437.405
NANOSAT C BR1 03 Mar 11:19:41 11:23:10 23° 266° (W) 11:26:33 145.865
GONETS M04 03 Mar 11:20:14 11:25:06 15° 281° (W) 11:29:21
Oscar 11 03 Mar 11:27:57 11:28:20 10° 296° (WNW) 11:28:27 145.826/435.025
Oscar 19 03 Mar 11:28:30 11:30:49 14° 63° (ENE) 11:33:24 437.125/150
DX 1 03 Mar 11:51:59 11:53:47 12° 296° (WNW) 11:55:22 434.975-435.025
AISAT 03 Mar 11:56:46 12:00:24 24° 291° (WNW) 12:03:55 437.250
CUBEBUG 1 03 Mar 11:57:20 12:01:40 53° 286° (WNW) 12:05:55 437.445
50 SAT 03 Mar 12:00:49 12:03:37 18° 291° (WNW) 12:06:18 437.505
BUGSAT 1 03 Mar 12:02:01 12:03:18 11° 271° (W) 12:04:19 437.445
VELOX 1 03 Mar 12:06:14 12:09:32 20° 292° (WNW) 12:12:44 145.980
HUMSAT D 03 Mar 12:12:30 12:13:42 11° 294° (WNW) 12:14:40 437.325/437.525
ESTCUBE 1 03 Mar 12:23:56 12:27:49 27° 290° (WNW) 12:31:34 437.505/2401.250
SPROUT 03 Mar 12:26:42 12:31:02 80° 103° (ESE) 12:35:18 437.525
SWISSCUBE 03 Mar 12:27:27 12:28:39 11° 88° (E) 12:30:10 437.505
TISAT 1 03 Mar 12:28:11 12:32:25 74° 102° (ESE) 12:36:36 437.305
BEESAT 03 Mar 12:35:17 12:37:13 13° 89° (E) 12:39:26 436.000
Gurwin Techsat 1B 03 Mar 12:42:54 12:46:18 18° 64° (ENE) 12:49:53 435.225
ITUPSAT 1 03 Mar 13:01:35 13:05:26 24° 94° (E) 13:09:23 437.325
Oscar 19 03 Mar 13:04:30 13:09:39 74° 259° (W) 13:14:47 437.125/150
ITAMSAT 1 03 Mar 13:04:50 13:09:35 38° 70° (ENE) 13:14:26 435.822/435.867
HORYU 2 03 Mar 13:36:18 13:38:02 12° 65° (ENE) 13:40:00 437.375
ISS 03 Mar 14:01:56 14:04:18 18° 23° (NNE) 14:06:41 145.825
SWISSCUBE 03 Mar 14:02:18 14:07:07 71° 286° (WNW) 14:11:54 437.505
KKS-1 03 Mar 14:10:05 14:13:36 23° 94° (E) 14:17:11 437.445
BEESAT 03 Mar 14:10:49 14:15:36 63° 286° (WNW) 14:20:19 436.000
STARS 03 Mar 14:15:14 14:17:58 17° 92° (E) 14:20:51 437.465
YUBILEINY 03 Mar 14:20:02 14:23:37 14° 78° (ENE) 14:27:54 435.215
Gurwin Techsat 1B 03 Mar 14:20:39 14:25:52 57° 260° (W) 14:31:08 435.225
AO-7 03 Mar 14:25:27 14:32:59 41° 63° (ENE) 14:40:37 29.400- 29.500
ITUPSAT 1 03 Mar 14:39:04 14:43:25 34° 290° (WNW) 14:47:42 437.325
ITAMSAT 1 03 Mar 14:44:55 14:49:13 25° 266° (W) 14:53:26 435.822/435.867
HORYU 2 03 Mar 15:09:52 15:14:15 61° 259° (W) 15:18:40 437.375
JAS-2 03 Mar 15:14:43 15:19:47 40° 69° (ENE) 15:25:29 435.910
ISS 03 Mar 15:37:48 15:41:00 66° 221° (SW) 15:44:13 145.825
KKS-1 03 Mar 15:46:24 15:50:17 30° 290° (WNW) 15:54:05 437.445
STARS 03 Mar 15:50:33 15:54:41 40° 288° (WNW) 15:58:45 437.465
BEESAT 3 03 Mar 16:00:03 16:02:36 17° 111° (ESE) 16:05:18 437.485
YUBILEINY 03 Mar 16:10:30 16:19:13 81° 95° (E) 16:28:02 435.215
M-CUBED/EXP-1 PRIME 03 Mar 16:14:47 16:18:38 31° 102° (ESE) 16:22:46 437.505
AUBIESAT-1 03 Mar 16:16:04 16:19:51 29° 102° (ESE) 16:23:53 437.475
AO-7 03 Mar 16:17:49 16:25:45 45° 261° (W) 16:33:35 29.400- 29.500
BEESAT 2 03 Mar 16:25:35 16:29:02 27° 114° (ESE) 16:32:36 435.950
AIST 2 03 Mar 16:30:33 16:31:38 11° 109° (ESE) 16:32:59 435.215
Cubesat XI-IV 03 Mar 16:39:06 16:43:14 24° 66° (ENE) 16:47:31 437.490
CUTE-I 03 Mar 16:47:28 16:51:54 28° 67° (ENE) 16:56:27 437.470
VERMONT LUNAR 03 Mar 16:50:24 16:53:36 34° 154° (SSE) 16:56:49 437.305
JAS-2 03 Mar 17:00:37 17:05:11 26° 269° (W) 17:10:00 435.910
PHONESAT 2.4 03 Mar 17:01:08 17:04:00 22° 149° (SSE) 17:06:55 2401.200-2431.200
MOZHAYETS 4 03 Mar 17:03:29 17:08:09 88° 105° (ESE) 17:12:48
CUBESAT XI-V 03 Mar 17:30:21 17:31:59 12° 88° (E) 17:33:55 437.345
BEESAT 3 03 Mar 17:36:30 17:40:23 41° 306° (NW) 17:44:21 437.485
AIST 1 03 Mar 17:41:38 17:45:35 32° 76° (ENE) 17:49:32
O/OREOS (USA 219) 03 Mar 17:46:25 17:48:31 13° 52° (NE) 17:50:49 437.305
PRISM 03 Mar 17:49:40 17:52:32 18° 93° (E) 17:55:31 437.425
M-CUBED/EXP-1 PRIME 03 Mar 17:49:55 17:53:27 25° 294° (WNW) 17:57:05 437.505
AUBIESAT-1 03 Mar 17:50:59 17:54:38 27° 294° (WNW) 17:58:24 437.475
STRAND 1 03 Mar 17:58:05 18:00:51 15° 90° (E) 18:03:51 437.568
BEESAT 2 03 Mar 18:03:37 18:07:11 27° 310° (NW) 18:10:44 435.950
AIST 2 03 Mar 18:05:32 18:09:45 65° 303° (WNW) 18:14:02 435.215
YUBILEINY 03 Mar 18:10:53 18:17:16 21° 297° (WNW) 18:23:16 435.215
Cubesat XI-IV 03 Mar 18:18:01 18:23:07 43° 262° (W) 18:28:13 437.490
CUTE-I 03 Mar 18:26:55 18:31:52 36° 263° (W) 18:36:47 437.470
VERMONT LUNAR 03 Mar 18:27:53 18:31:23 78° 349° (N) 18:34:53 437.305
HO-68 03 Mar 18:34:00 18:38:39 20° 58° (ENE) 18:43:34 435.675
BRITE-PL 03 Mar 18:36:24 18:39:44 17° 66° (ENE) 18:43:13 437.365/2234.400
PHONESAT 2.4 03 Mar 18:38:32 18:42:11 81° 166° (SSE) 18:45:50 2401.200-2431.200
GOMX 1 03 Mar 18:38:37 18:39:37 11° 64° (ENE) 18:40:56 467.674
CUBESAT XI-V 03 Mar 19:05:17 19:09:58 63° 285° (WNW) 19:14:36 437.345
DOVE 4 03 Mar 19:07:08 19:09:33 14° 66° (ENE) 19:12:09 437.250
COMPASS 1 03 Mar 19:12:55 19:13:48 11° 65° (ENE) 19:14:55 437.405
AIST 1 03 Mar 19:19:50 19:23:04 19° 271° (W) 19:26:08
O/OREOS (USA 219) 03 Mar 19:23:57 19:28:31 66° 251° (WSW) 19:33:01 437.305
PRISM 03 Mar 19:24:18 19:28:11 35° 289° (WNW) 19:32:00 437.425
STRAND 1 03 Mar 19:35:27 19:40:32 60° 287° (WNW) 19:45:34 437.568
SEEDS 03 Mar 19:39:03 19:42:31 26° 71° (ENE) 19:46:04 437.485
CANX-2 03 Mar 19:43:30 19:47:24 39° 73° (ENE) 19:51:21 2200.000
CUTE 1.7 + AOD 2 03 Mar 20:01:41 20:05:49 58° 74° (ENE) 20:09:57 437.475
VERMONT LUNAR 03 Mar 20:05:56 20:09:26 69° 6° (N) 20:12:55 437.305
DELFI C3 03 Mar 20:09:29 20:11:43 15° 68° (ENE) 20:14:07 145.870
GOMX 1 03 Mar 20:11:45 20:17:10 86° 78° (ENE) 20:22:20 467.674
BRITE-PL 03 Mar 20:12:11 20:17:49 67° 259° (W) 20:23:15 437.365/2234.400
PHONESAT 2.4 03 Mar 20:17:07 20:20:45 65° 1° (N) 20:24:22 2401.200-2431.200
UWE-3 03 Mar 20:17:45 20:20:22 16° 68° (ENE) 20:23:07 435.000/436.395/437.385
HO-68 03 Mar 20:18:31 20:25:40 81° 255° (WSW) 20:32:52 435.675
PCSat 03 Mar 20:21:13 20:26:36 74° 116° (ESE) 20:32:03 145.827
GONETS M04 03 Mar 20:26:16 20:32:11 22° 82° (E) 20:38:32
AAUSAT CUBESAT 2 03 Mar 20:41:26 20:45:33 80° 256° (WSW) 20:49:44 437.432
DOVE 4 03 Mar 20:41:45 20:46:54 69° 259° (W) 20:51:49 437.250
Oscar 11 03 Mar 20:41:54 20:46:01 47° 73° (ENE) 20:50:10 145.826/435.025
CINEMA 3 03 Mar 20:42:03 20:46:47 66° 76° (ENE) 20:51:21 145.822/145.860
COMPASS 1 03 Mar 20:44:56 20:49:03 62° 259° (W) 20:53:12 437.405
CUBEBUG 2 03 Mar 20:55:40 21:00:02 50° 74° (ENE) 21:04:17 437.445
DX 1 03 Mar 21:08:00 21:12:10 45° 73° (ENE) 21:16:24 434.975-435.025
RS-15 03 Mar 21:10:58 21:16:46 17° 101° (E) 21:23:23 29.354- 29.394
50 SAT 03 Mar 21:11:48 21:14:19 17° 69° (ENE) 21:16:57 437.505
SEEDS 03 Mar 21:14:57 21:18:20 23° 266° (W) 21:21:39 437.485
AISAT 03 Mar 21:17:10 21:20:43 24° 69° (ENE) 21:24:22 437.250
CUBEBUG 1 03 Mar 21:20:04 21:20:32 10° 64° (ENE) 21:21:15 437.445
CANX-2 03 Mar 21:20:54 21:23:34 16° 269° (W) 21:26:04 2200.000
HUMSAT D 03 Mar 21:25:13 21:29:02 35° 73° (ENE) 21:32:52 437.325/437.525
VELOX 1 03 Mar 21:25:51 21:29:38 28° 70° (ENE) 21:33:32 145.980
FUNcube-1 03 Mar 21:28:44 21:33:06 79° 77° (ENE) 21:37:23 145.935
ZACube-1 03 Mar 21:30:23 21:34:47 84° 77° (ENE) 21:39:06 437.345
UKube-1 03 Mar 21:35:55 21:40:16 89° 241° (WSW) 21:44:40 .
CUTE 1.7 + AOD 2 03 Mar 21:41:13 21:42:12 10° 272° (W) 21:42:54 437.475
DELFI C3 03 Mar 21:42:50 21:46:38 40° 262° (W) 21:50:27 145.870
VERMONT LUNAR 03 Mar 21:43:56 21:47:18 47° 203° (SSW) 21:50:39 437.305
ESTCUBE 1 03 Mar 21:46:04 21:49:32 23° 69° (ENE) 21:53:08 437.505/2401.250
UWE-3 03 Mar 21:52:22 21:56:38 44° 261° (W) 22:00:48 435.000/436.395/437.385
GOMX 1 03 Mar 21:54:37 21:55:56 11° 273° (W) 21:56:49 467.674
PHONESAT 2.4 03 Mar 21:55:39 21:59:17 71° 198° (SSW) 22:02:53 2401.200-2431.200
UNISAT 6 03 Mar 21:57:38 22:00:41 19° 93° (E) 22:03:53 437.425
QB50P1 03 Mar 22:04:49 22:06:12 12° 89° (E) 22:07:50 145.935-145.965
PCSat 03 Mar 22:07:00 22:10:41 18° 315° (NW) 22:14:13 145.827
QB50P2 03 Mar 22:08:33 22:10:32 13° 90° (E) 22:12:44 145.880/145.840
HO-68 03 Mar 22:11:48 22:14:38 12° 274° (W) 22:16:52 435.675
GONETS M04 03 Mar 22:19:36 22:28:16 73° 280° (W) 22:36:58
Oscar 11 03 Mar 22:20:14 22:22:31 14° 270° (W) 22:24:37 145.826/435.025
TIGRISAT 03 Mar 22:21:29 22:25:24 34° 97° (E) 22:29:23 435.000
DUCHIFAT 1 03 Mar 22:21:51 22:24:45 18° 93° (E) 22:27:46 145.980
CINEMA 3 03 Mar 22:22:44 22:24:27 11° 271° (W) 22:25:52 145.822/145.860
CUBEBUG 2 03 Mar 22:34:38 22:37:03 14° 269° (W) 22:39:13 437.445
ANTELSAT 03 Mar 22:35:32 22:39:45 52° 100° (E) 22:44:01 437.575/2403.000
CUSAT 1 03 Mar 22:37:50 22:41:23 17° 94° (E) 22:44:42 437.405
POPSAT HIP 1 03 Mar 22:42:42 22:46:29 32° 97° (E) 22:50:18 437.405
POLYITAN 1 03 Mar 22:42:45 22:46:35 33° 97° (E) 22:50:25 437.675
50 SAT 03 Mar 22:45:27 22:49:06 33° 263° (W) 22:52:43 437.505
DX 1 03 Mar 22:46:07 22:48:44 15° 269° (W) 22:51:09 434.975-435.025
CUBEBUG 1 03 Mar 22:51:55 22:56:21 77° 258° (WSW) 23:00:50 437.445
AISAT 03 Mar 22:53:13 22:57:13 30° 264° (W) 23:01:11 437.250
HUMSAT D 03 Mar 23:02:09 23:04:59 17° 268° (W) 23:07:39 437.325/437.525
VELOX 1 03 Mar 23:02:28 23:06:13 25° 265° (W) 23:09:54 145.980
NANOSAT C BR1 03 Mar 23:05:07 23:09:19 61° 100° (E) 23:13:29 145.865
RS-15 03 Mar 23:16:46 23:27:39 83° 119° (ESE) 23:38:44 29.354- 29.394
TISAT 1 03 Mar 23:19:13 23:23:18 46° 73° (ENE) 23:27:25 437.305
SPROUT 03 Mar 23:19:33 23:23:45 51° 74° (ENE) 23:27:59 437.525
ESTCUBE 1 03 Mar 23:22:11 23:26:17 32° 264° (W) 23:30:21 437.505/2401.250
VERMONT LUNAR 03 Mar 23:24:07 23:24:43 10° 216° (SW) 23:25:11 437.305
SWISSCUBE 03 Mar 23:33:10 23:35:01 12° 63° (ENE) 23:37:06 437.505
UNISAT 6 03 Mar 23:33:43 23:37:37 33° 288° (WNW) 23:41:30 437.425
PHONESAT 2.4 03 Mar 23:34:47 23:37:23 18° 212° (SSW) 23:39:55 2401.200-2431.200
QB50P1 03 Mar 23:38:22 23:42:30 53° 286° (WNW) 23:46:35 145.935-145.965
BEESAT 03 Mar 23:41:04 23:43:21 14° 64° (ENE) 23:45:52 436.000
BUGSAT 1 03 Mar 23:42:19 23:46:27 65° 285° (WNW) 23:50:30 437.445
QB50P2 03 Mar 23:42:43 23:46:47 46° 287° (WNW) 23:50:49 145.880/145.840
DANDE 03 Mar 23:54:50 00:01:46 74° 98° (E) 00:06:57 436.750
DUCHIFAT 1 03 Mar 23:56:55 00:00:43 33° 289° (WNW) 00:04:28 145.980
TIGRISAT 03 Mar 23:58:53 00:01:59 19° 292° (WNW) 00:04:59 435.000
ITUPSAT 1 04 Mar 00:07:30 00:11:20 25° 68° (ENE) 00:15:16 437.325
ANTELSAT 04 Mar 00:13:59 00:16:12 13° 294° (WNW) 00:18:13 437.575/2403.000
CUSAT 1 04 Mar 00:18:01 00:24:16 56° 281° (W) 00:28:56 437.405
POPSAT HIP 1 04 Mar 00:19:06 00:22:12 20° 292° (WNW) 00:25:11 437.405
POLYITAN 1 04 Mar 00:19:16 00:22:19 19° 292° (WNW) 00:25:16 437.675
GONETS M04 04 Mar 00:23:03 00:27:06 13° 303° (WNW) 00:30:30
NANOSAT C BR1 04 Mar 00:43:18 00:44:44 11° 295° (WNW) 00:45:56 145.865
BEESAT 2 04 Mar 00:46:53 00:49:13 15° 43° (NE) 00:51:41 435.950
TISAT 1 04 Mar 00:57:03 00:59:25 14° 269° (W) 01:01:34 437.305
SPROUT 04 Mar 00:58:08 01:00:13 13° 270° (W) 01:02:04 437.525
SWISSCUBE 04 Mar 01:07:35 01:12:20 72° 257° (WSW) 01:17:09 437.505
KKS-1 04 Mar 01:07:40 01:10:49 20° 68° (ENE) 01:14:06 437.445
STARS 04 Mar 01:12:03 01:14:15 14° 66° (ENE) 01:16:39 437.465
BEESAT 04 Mar 01:16:00 01:20:44 63° 259° (W) 01:25:30 436.000
Oscar 19 04 Mar 01:17:27 01:22:19 43° 98° (E) 01:27:12 437.125/150
ITAMSAT 1 04 Mar 01:20:23 01:23:02 14° 89° (E) 01:25:57 435.822/435.867
SO-50 04 Mar 01:21:50 01:26:24 84° 120° (ESE) 01:31:10 436.795
RS-15 04 Mar 01:31:57 01:41:29 32° 325° (NW) 01:51:00 29.354- 29.394
DANDE 04 Mar 01:41:45 01:45:14 15° 289° (WNW) 01:48:01 436.750
ITUPSAT 1 04 Mar 01:44:48 01:49:07 33° 264° (W) 01:53:25 437.325
BEESAT 3 04 Mar 01:56:37 02:00:46 79° 59° (ENE) 02:04:50 437.485
YUBILEINY 04 Mar 02:22:37 02:30:37 38° 72° (ENE) 02:38:43 435.215
BEESAT 2 04 Mar 02:23:44 02:27:51 61° 242° (WSW) 02:31:52 435.950
JUGNU 04 Mar 02:25:12 02:26:35 11° 175° (S) 02:28:01 437.505
AIST 2 04 Mar 02:28:38 02:32:50 54° 56° (NE) 02:36:57 435.215
AO-7 04 Mar 02:32:33 02:33:51 11° 84° (E) 02:36:00 29.400- 29.500
Gurwin Techsat 1B 04 Mar 02:38:01 02:43:19 64° 101° (E) 02:48:35 435.225
KKS-1 04 Mar 02:43:04 02:47:14 37° 262° (W) 02:51:24 437.445
STARS 04 Mar 02:45:59 02:50:20 54° 260° (W) 02:54:41 437.465
Oscar 19 04 Mar 02:57:31 03:01:26 22° 294° (WNW) 03:05:13 437.125/150
ITAMSAT 1 04 Mar 02:57:54 03:03:05 63° 287° (WNW) 03:08:13 435.822/435.867
HORYU 2 04 Mar 03:02:53 03:06:39 27° 96° (E) 03:10:29 437.375
M-CUBED/EXP-1 PRIME 04 Mar 03:03:53 03:06:40 26° 66° (ENE) 03:09:36 437.505
AUBIESAT-1 04 Mar 03:04:46 03:07:27 23° 65° (ENE) 03:10:17 437.475
SO-50 04 Mar 03:05:01 03:07:41 15° 321° (NW) 03:10:15 436.795
